Find Starlink 5553

NORAD ID: 56333 Int'l Des: 2023-058 Owner: SPXS Country: US Constellation: starlink operational
LEOCIRCULARRETROGRADESSO

当前视图

正在加载3D地球...

About Starlink 5553

Starlink 5553 (NORAD 56333) is a starlink constellation satellite (v1.5) launched Apr 27, 2023 by SPXS of US. It operates in LEO, CIRCULAR, RETROGRADE, SSO orbit with a mass of 300.00 kg.

即将过境

Passes for default location (London). Set your location on the main map for personalized predictions.

高度历史

Loading altitude history...

两行轨道根数

1 56333U 23058S 26265.56637503 .00000166 00000-0 74750-5 0 9995
2 56333 97.2848 262.3171 0001805 86.5468 273.5981 15.33436515187954
Epoch: Sep 22, 2026 • Age: 16 hours

当前状态

高度 469.8 km
远地点 / 近地点 N/A
速度 7.63 km/s
星下点 -6.88°S, 176.6°W
发射日期 Apr 27, 2023
运行时间 3.4 years
类型 internet

技术详情

分类 Payload
质量 300.00 kg
干质量 260.00 kg
长度 0.20 m
跨度 9.00 m
形状 ? Box + pan
制造商 SPXS
平台类型 Starlink
阶段状态 In Orbit
所有者/国家 SPXS/US

Most Searched